Flag for USA

Past Weather in 32°52'47"N, 96°45'17"W, USA — Yesterday and Last 2 Weeks

Now
97 °F

Sunny.


Feels Like: 104 °F
Forecast: 103 / 80 °F
Wind: 9 mph from South

Location: Dallas Love Field

Current Time: Jul 11, 2020 at 7:51:53 pm

Latest Report: Jul 11, 2020 at 6:53 pm


Visibility: 10 mi

Pressure: 29.88 "Hg

Humidity: 42%

Dew Point: 70 °F

Location of 32°52'47"N, 96°45'17"WLocation

Past Weather in 32°52'47"N, 96°45'17"W — Graph

°F

32°52'47"N, 96°45'17"W Temperature Yesterday

Maximum temperature yesterday: 95 °F (at 3:53 pm)
Minimum temperature yesterday: 80 °F (at 5:53 am)
Average temperature yesterday: 88 °F

High & Low Weather Summary for the Past Weeks

 TemperatureHumidityPressure
High99 °F (Jul 3, 5:53 pm)88% (Jul 6, 7:34 am)30.02 "Hg (Jul 6, 7:34 am)
Low74 °F (Jul 6, 7:34 am)27% (Jul 3, 4:53 pm)29.71 "Hg (Jun 28, 7:53 pm)
Average85 °F64%29.87 "Hg
* Reported Jun 26 5:53 pm — Jul 11 5:53 pm, 32°52'47"N, 96°45'17"W. Weather by CustomWeather, © 2020

Note: Actual official high and low records may vary slightly from our data, if they occured in-between our weather recording intervals... More about our weather records

32°52'47"N, 96°45'17"W Weather History for the Previous 24 Hours

Scroll right to see more
 ConditionsComfort  
Time TempWeatherWind HumidityBarometerVisibility
5:53 pm
Sat, Jul 11
97 °FSunny.13 mph43%29.88 "Hg10 mi
4:53 pm98 °FPassing clouds.9 mph42%29.89 "Hg10 mi
3:53 pm98 °FSunny.9 mph45%29.91 "Hg10 mi
2:53 pm97 °FSunny.9 mph42%29.93 "Hg10 mi
1:53 pm96 °FPassing clouds.6 mph46%29.96 "Hg10 mi
12:53 pm95 °FPassing clouds.9 mph47%29.98 "Hg10 mi
11:53 am93 °FPassing clouds.6 mph50%30.00 "Hg10 mi
10:53 am91 °FSunny.8 mph56%30.00 "Hg10 mi
9:53 am87 °FSunny.8 mph61%30.01 "Hg10 mi
8:53 am85 °FPassing clouds.6 mph68%30.00 "Hg10 mi
7:53 am82 °FSunny.9 mph74%30.00 "Hg10 mi
6:53 am82 °FSunny.8 mph74%29.98 "Hg10 mi
5:53 am82 °FPassing clouds.7 mph74%29.96 "Hg10 mi
4:53 am82 °FPassing clouds.7 mph74%29.93 "Hg10 mi
3:53 am83 °FPassing clouds.10 mph72%29.93 "Hg10 mi
2:53 am84 °FPassing clouds.8 mph70%29.93 "Hg10 mi
1:53 am84 °FPassing clouds.9 mph70%29.94 "Hg10 mi
12:53 am85 °FPassing clouds.7 mph68%29.96 "Hg10 mi
11:53 pm
Fri, Jul 10
86 °FPassing clouds.7 mph63%29.95 "Hg10 mi
10:53 pm87 °FPassing clouds.7 mph61%29.93 "Hg10 mi
9:53 pm89 °FPassing clouds.10 mph57%29.93 "Hg10 mi
8:53 pm89 °FPartly cloudy.9 mph57%29.91 "Hg10 mi
8:40 pm89 °FPartly cloudy.8 mph55%29.94 "Hg10 mi
7:53 pm90 °FBroken clouds.13 mph56%29.92 "Hg10 mi
Weather by CustomWeather, © 2020

See weather overview